Tracking 35331 objects as of 16-Sep-2026
HD Live streaming from Space Station
objects crossing your sky now

COSMOS 1481 DEB

Track COSMOS 1481 DEB now!


NORAD ID: 27907
Int'l Code: 1983-070J
Launch date: July 8, 1983
Source: Commonwealth of Independent States (former USSR) (CIS)
Launch site: PLESETSK MISSILE AND SPACE COMPLEX (PKMTR)

Note: This is SATELLITE DEBRIS
Your satellite tracking list
Your tracking list is empty




NASA's NSSDC Master Catalog

Two Line Element Set (TLE):
1 27907U 83070J   23112.12670061  .00000728  00000-0  00000+0 0  9991
2 27907  69.5115 281.3483 6399046 300.8153  11.3847  1.98541550186074
Source of the keplerian elements: AFSPC